| time (UTC) | temp F | wind direction | speed knots | gust knots | rain 1hr in | rain 24hr in | rain mn in | humidity % | barometer mb |
| 20260901231033 | 62 | 319 | 1.7 | 4.3 | 0.00 | 0.00 | 0.00 | 75 | 1023.6 |
| 20260901230533 | 62 | 322 | 1.7 | 3.5 | 0.00 | 0.00 | 0.00 | 75 | 1023.5 |
| 20260901230036 | 62 | 318 | 1.7 | 4.3 | 0.00 | 0.00 | 0.00 | 75 | 1023.6 |
| 20260901225536 | 62 | 307 | 1.7 | 5.2 | 0.00 | 0.00 | 0.00 | 75 | 1023.5 |
| 20260901225031 | 62 | 310 | 2.6 | 5.2 | 0.00 | 0.00 | 0.00 | 74 | 1023.6 |
| 20260901224535 | 62 | 325 | 1.7 | 4.3 | 0.00 | 0.00 | 0.00 | 74 | 1023.5 |
| 20260901224030 | 63 | 313 | 1.7 | 3.5 | 0.00 | 0.00 | 0.00 | 74 | 1023.4 |
| 20260901223530 | 63 | 319 | 1.7 | 4.3 | 0.00 | 0.00 | 0.00 | 73 | 1023.4 |
| 20260901223030 | 63 | 322 | 2.6 | 4.3 | 0.00 | 0.00 | 0.00 | 73 | 1023.5 |
| 20260901222530 | 63 | 314 | 1.7 | 2.6 | 0.00 | 0.00 | 0.00 | 73 | 1023.4 |
| 20260901222028 | 63 | 255 | 0.0 | 2.6 | 0.00 | 0.00 | 0.00 | 72 | 1023.4 |
| 20260901221557 | 63 | 267 | 0.9 | 2.6 | 0.00 | 0.00 | 0.00 | 72 | 1023.4 |
| 20260901221027 | 63 | 285 | 0.0 | 2.6 | 0.00 | 0.00 | 0.00 | 72 | 1023.4 |
| 20260901220525 | 64 | 282 | 0.0 | 0.0 | 0.00 | 0.00 | 0.00 | 72 | 1023.5 |
| 20260901220025 | 64 | 321 | 0.0 | 1.7 | 0.00 | 0.00 | 0.00 | 72 | 1023.5 |
| 20260901215525 | 64 | 250 | 0.0 | 3.5 | 0.00 | 0.00 | 0.00 | 72 | 1023.5 |
| 20260901215029 | 64 | 324 | 0.0 | 4.3 | 0.00 | 0.00 | 0.00 | 72 | 1023.4 |
| 20260901214524 | 64 | 337 | 1.7 | 4.3 | 0.00 | 0.00 | 0.00 | 72 | 1023.4 |
| 20260901214028 | 64 | 320 | 1.7 | 3.5 | 0.00 | 0.00 | 0.00 | 72 | 1023.4 |
| 20260901213525 | 64 | 319 | 0.9 | 2.6 | 0.00 | 0.00 | 0.00 | 72 | 1023.4 |
| 20260901213024 | 65 | 315 | 0.9 | 3.5 | 0.00 | 0.00 | 0.00 | 71 | 1023.4 |
| 20260901212524 | 65 | 315 | 0.0 | 3.5 | 0.00 | 0.00 | 0.00 | 71 | 1023.3 |
| 20260901212026 | 65 | 311 | 0.9 | 2.6 | 0.00 | 0.00 | 0.00 | 71 | 1023.4 |
| 20260901211532 | 65 | 315 | 0.0 | 1.7 | 0.00 | 0.00 | 0.00 | 70 | 1023.5 |
| 20260901211027 | 65 | 315 | 0.9 | 2.6 | 0.00 | 0.00 | 0.00 | 70 | 1023.4 |
| 20260901210524 | 65 | 315 | 0.0 | 2.6 | 0.00 | 0.00 | 0.00 | 69 | 1023.4 |
| 20260901210024 | 65 | 314 | 0.0 | 1.7 | 0.00 | 0.00 | 0.00 | 69 | 1023.4 |
| 20260901205524 | 66 | 315 | 0.0 | 0.9 | 0.00 | 0.00 | 0.00 | 69 | 1023.4 |
| 20260901205024 | 66 | 317 | 0.0 | 0.0 | 0.00 | 0.00 | 0.00 | 68 | 1023.4 |
| 20260901204532 | 66 | 316 | 0.0 | 0.0 | 0.00 | 0.00 | 0.00 | 68 | 1023.5 |
| 20260901204023 | 66 | 317 | 0.0 | 0.0 | 0.00 | 0.00 | 0.00 | 67 | 1023.5 |
| 20260901203523 | 67 | 317 | 0.0 | 0.0 | 0.00 | 0.00 | 0.00 | 67 | 1023.5 |
| 20260901203041 | 67 | 317 | 0.0 | 0.0 | 0.00 | 0.00 | 0.00 | 67 | 1023.5 |
| 20260901202523 | 67 | 317 | 0.0 | 0.0 | 0.00 | 0.00 | 0.00 | 66 | 1023.5 |
| 20260901202032 | 67 | 317 | 0.0 | 2.6 | 0.00 | 0.00 | 0.00 | 66 | 1023.4 |
| 20260901201534 | 68 | 317 | 0.0 | 2.6 | 0.00 | 0.00 | 0.00 | 66 | 1023.4 |
| 20260901201022 | 68 | 316 | 0.0 | 0.9 | 0.00 | 0.00 | 0.00 | 65 | 1023.5 |
| 20260901200521 | 68 | 316 | 0.0 | 2.6 | 0.00 | 0.00 | 0.00 | 65 | 1023.4 |
| 20260901200027 | 68 | 316 | 0.9 | 2.6 | 0.00 | 0.00 | 0.00 | 65 | 1023.4 |
| 20260901195522 | 68 | 316 | 0.0 | 2.6 | 0.00 | 0.00 | 0.00 | 65 | 1023.4 |
| 20260901195024 | 68 | 316 | 0.9 | 2.6 | 0.00 | 0.00 | 0.00 | 65 | 1023.3 |
| 20260901194522 | 68 | 315 | 0.0 | 3.5 | 0.00 | 0.00 | 0.00 | 64 | 1023.2 |
| 20260901194028 | 69 | 341 | 1.7 | 3.5 | 0.00 | 0.00 | 0.00 | 63 | 1023.3 |
| 20260901193521 | 69 | 54 | 0.0 | 0.9 | 0.00 | 0.00 | 0.00 | 63 | 1023.3 |
| 20260901193022 | 69 | 54 | 0.0 | 0.9 | 0.00 | 0.00 | 0.00 | 62 | 1023.3 |
| 20260901192524 | 70 | 54 | 0.0 | 0.9 | 0.00 | 0.00 | 0.00 | 61 | 1023.2 |
| 20260901192029 | 70 | 54 | 0.0 | 0.9 | 0.00 | 0.00 | 0.00 | 61 | 1023.2 |
| 20260901191522 | 70 | 54 | 0.0 | 0.9 | 0.00 | 0.00 | 0.00 | 60 | 1023.2 |
| 20260901191020 | 71 | 54 | 0.0 | 0.0 | 0.00 | 0.00 | 0.00 | 59 | 1023.2 |
| 20260901190520 | 71 | 54 | 0.0 | 0.0 | 0.00 | 0.00 | 0.00 | 58 | 1023.1 |
| 20260901190021 | 71 | 54 | 0.0 | 1.7 | 0.00 | 0.00 | 0.00 | 57 | 1023.1 |
| 20260901185520 | 71 | 54 | 0.0 | 1.7 | 0.00 | 0.00 | 0.00 | 57 | 1023.0 |
| 20260901185020 | 72 | 31 | 0.0 | 0.9 | 0.00 | 0.00 | 0.00 | 57 | 1023.0 |
| 20260901184520 | 72 | 31 | 0.0 | 0.9 | 0.00 | 0.00 | 0.00 | 56 | 1022.9 |
| 20260901184020 | 72 | 31 | 0.0 | 0.9 | 0.00 | 0.00 | 0.00 | 56 | 1022.9 |
| 20260901183520 | 73 | 31 | 0.0 | 0.0 | 0.00 | 0.00 | 0.00 | 55 | 1022.8 |
| 20260901183020 | 73 | 31 | 0.0 | 0.0 | 0.00 | 0.00 | 0.00 | 55 | 1022.7 |
| 20260901182520 | 74 | 31 | 0.0 | 0.9 | 0.00 | 0.00 | 0.00 | 54 | 1022.7 |
| 20260901182024 | 74 | 31 | 0.0 | 0.9 | 0.00 | 0.00 | 0.00 | 52 | 1022.7 |
| 20260901181521 | 75 | 31 | 0.0 | 0.0 | 0.00 | 0.00 | 0.00 | 52 | 1022.6 |
| 20260901181018 | 75 | 31 | 0.0 | 0.0 | 0.00 | 0.00 | 0.00 | 50 | 1022.6 |
| 20260901180519 | 75 | 31 | 0.0 | 0.9 | 0.00 | 0.00 | 0.00 | 50 | 1022.5 |
| 20260901180019 | 76 | 31 | 0.0 | 0.9 | 0.00 | 0.00 | 0.00 | 50 | 1022.4 |
| 20260901175520 | 76 | 30 | 0.0 | 0.0 | 0.00 | 0.00 | 0.00 | 49 | 1022.4 |
| 20260901175019 | 76 | 31 | 0.0 | 1.7 | 0.00 | 0.00 | 0.00 | 48 | 1022.4 |
| 20260901174518 | 76 | 31 | 0.0 | 1.7 | 0.00 | 0.00 | 0.00 | 48 | 1022.4 |
| 20260901174022 | 76 | 31 | 0.0 | 1.7 | 0.00 | 0.00 | 0.00 | 47 | 1022.5 |
| 20260901173518 | 76 | 31 | 0.0 | 1.7 | 0.00 | 0.00 | 0.00 | 46 | 1022.4 |
| 20260901173018 | 76 | 30 | 0.0 | 2.6 | 0.00 | 0.00 | 0.00 | 45 | 1022.3 |
| 20260901172518 | 77 | 30 | 0.9 | 2.6 | 0.00 | 0.00 | 0.00 | 44 | 1022.3 |
| 20260901172018 | 77 | 49 | 0.0 | 2.6 | 0.00 | 0.00 | 0.00 | 44 | 1022.3 |
| 20260901171517 | 77 | 44 | 0.0 | 3.5 | 0.00 | 0.00 | 0.00 | 44 | 1022.3 |
| 20260901171017 | 77 | 318 | 0.9 | 3.5 | 0.00 | 0.00 | 0.00 | 43 | 1022.3 |
| 20260901170520 | 77 | 221 | 0.0 | 1.7 | 0.00 | 0.00 | 0.00 | 43 | 1022.2 |
| 20260901170017 | 77 | 227 | 0.0 | 3.5 | 0.00 | 0.00 | 0.00 | 43 | 1022.3 |
| 20260901165516 | 78 | 225 | 0.9 | 3.5 | 0.00 | 0.00 | 0.00 | 43 | 1022.4 |
| 20260901165016 | 78 | 302 | 1.7 | 3.5 | 0.00 | 0.00 | 0.00 | 42 | 1022.4 |
| 20260901164516 | 78 | 327 | 0.0 | 3.5 | 0.00 | 0.00 | 0.00 | 42 | 1022.4 |
| 20260901164016 | 78 | 323 | 0.0 | 4.3 | 0.00 | 0.00 | 0.00 | 42 | 1022.5 |
| 20260901163515 | 78 | 313 | 0.0 | 4.3 | 0.00 | 0.00 | 0.00 | 41 | 1022.5 |
| 20260901163015 | 78 | 315 | 0.0 | 0.0 | 0.00 | 0.00 | 0.00 | 42 | 1022.5 |
| 20260901162515 | 78 | 310 | 0.0 | 0.9 | 0.00 | 0.00 | 0.00 | 42 | 1022.5 |
| 20260901162015 | 78 | 50 | 0.0 | 0.9 | 0.00 | 0.00 | 0.00 | 40 | 1022.5 |
| 20260901161525 | 78 | 87 | 0.0 | 1.7 | 0.00 | 0.00 | 0.00 | 40 | 1022.5 |
| 20260901161014 | 78 | 91 | 0.0 | 2.6 | 0.00 | 0.00 | 0.00 | 39 | 1022.5 |
| 20260901160514 | 78 | 92 | 0.9 | 5.2 | 0.00 | 0.00 | 0.00 | 39 | 1022.6 |
| 20260901160029 | 78 | 229 | 0.9 | 5.2 | 0.00 | 0.00 | 0.00 | 39 | 1022.6 |
| 20260901155513 | 78 | 30 | 0.0 | 3.5 | 0.00 | 0.00 | 0.00 | 40 | 1022.6 |
| 20260901155018 | 78 | 355 | 1.7 | 3.5 | 0.00 | 0.00 | 0.00 | 40 | 1022.6 |
| 20260901154513 | 79 | 355 | 0.9 | 2.6 | 0.00 | 0.00 | 0.00 | 40 | 1022.7 |
| 20260901154013 | 79 | 290 | 0.9 | 3.5 | 0.00 | 0.00 | 0.00 | 41 | 1022.7 |
| 20260901153513 | 79 | 196 | 0.9 | 3.5 | 0.00 | 0.00 | 0.00 | 40 | 1022.6 |
| 20260901153013 | 79 | 263 | 0.9 | 4.3 | 0.00 | 0.00 | 0.00 | 41 | 1022.7 |
| 20260901152516 | 79 | 355 | 0.9 | 4.3 | 0.00 | 0.00 | 0.00 | 40 | 1022.7 |
| 20260901152012 | 79 | 122 | 0.0 | 2.6 | 0.00 | 0.00 | 0.00 | 40 | 1022.6 |
| 20260901151512 | 79 | 129 | 0.0 | 2.6 | 0.00 | 0.00 | 0.00 | 41 | 1022.6 |
| 20260901151013 | 79 | 141 | 0.0 | 2.6 | 0.00 | 0.00 | 0.00 | 42 | 1022.5 |
| 20260901150511 | 79 | 142 | 0.0 | 4.3 | 0.00 | 0.00 | 0.00 | 41 | 1022.6 |
| 20260901150011 | 79 | 338 | 1.7 | 6.1 | 0.00 | 0.00 | 0.00 | 41 | 1022.7 |
| 20260901145511 | 79 | 225 | 0.9 | 2.6 | 0.00 | 0.00 | 0.00 | 42 | 1022.8 |
| 20260901145010 | 79 | 277 | 0.9 | 7.0 | 0.00 | 0.00 | 0.00 | 42 | 1022.8 |
| 20260901144512 | 79 | 224 | 0.0 | 6.1 | 0.00 | 0.00 | 0.00 | 43 | 1022.8 |
| 20260901144010 | 79 | 31 | 0.0 | 3.5 | 0.00 | 0.00 | 0.00 | 42 | 1022.6 |
| 20260901143511 | 79 | 323 | 0.9 | 3.5 | 0.00 | 0.00 | 0.00 | 41 | 1022.7 |
| 20260901143010 | 79 | 167 | 0.0 | 3.5 | 0.00 | 0.00 | 0.00 | 42 | 1022.8 |
| 20260901142510 | 79 | 188 | 0.0 | 3.5 | 0.00 | 0.00 | 0.00 | 43 | 1022.7 |
| 20260901142010 | 79 | 182 | 0.9 | 3.5 | 0.00 | 0.00 | 0.00 | 42 | 1022.7 |
| 20260901141508 | 79 | 165 | 1.7 | 5.2 | 0.00 | 0.00 | 0.00 | 42 | 1022.8 |
| 20260901141008 | 79 | 333 | 1.7 | 5.2 | 0.00 | 0.00 | 0.00 | 41 | 1022.9 |
| 20260901140508 | 79 | 300 | 0.9 | 5.2 | 0.00 | 0.00 | 0.00 | 40 | 1022.9 |
| 20260901140007 | 79 | 225 | 1.7 | 5.2 | 0.00 | 0.00 | 0.00 | 41 | 1023.0 |
| 20260901135507 | 79 | 277 | 0.0 | 4.3 | 0.00 | 0.00 | 0.00 | 40 | 1022.9 |
| 20260901135007 | 79 | 332 | 1.7 | 4.3 | 0.00 | 0.00 | 0.00 | 41 | 1022.9 |
| 20260901134508 | 79 | 49 | 1.7 | 4.3 | 0.00 | 0.00 | 0.00 | 39 | 1022.9 |
| 20260901134006 | 79 | 324 | 0.9 | 4.3 | 0.00 | 0.00 | 0.00 | 38 | 1023.0 |
| 20260901133506 | 80 | 342 | 1.7 | 4.3 | 0.00 | 0.00 | 0.00 | 39 | 1023.0 |
| 20260901133007 | 80 | 329 | 0.9 | 4.3 | 0.00 | 0.00 | 0.00 | 39 | 1023.1 |
| 20260901132506 | 80 | 65 | 0.9 | 6.1 | 0.00 | 0.00 | 0.00 | 39 | 1023.1 |
| 20260901132006 | 80 | 360 | 1.7 | 6.1 | 0.00 | 0.00 | 0.00 | 38 | 1023.1 |
| 20260901131504 | 81 | 60 | 0.9 | 4.3 | 0.00 | 0.00 | 0.00 | 38 | 1023.2 |
| 20260901131004 | 80 | 122 | 1.7 | 7.8 | 0.00 | 0.00 | 0.00 | 38 | 1023.1 |
| 20260901130506 | 80 | 188 | 0.9 | 7.8 | 0.00 | 0.00 | 0.00 | 38 | 1023.2 |
| 20260901130005 | 79 | 90 | 0.9 | 3.5 | 0.00 | 0.00 | 0.00 | 41 | 1023.3 |
| 20260901125501 | 80 | 351 | 0.9 | 4.3 | 0.00 | 0.00 | 0.00 | 40 | 1023.4 |
| 20260901125003 | 80 | 278 | 0.9 | 4.3 | 0.00 | 0.00 | 0.00 | 40 | 1023.4 |
| 20260901124502 | 80 | 183 | 0.0 | 2.6 | 0.00 | 0.00 | 0.00 | 40 | 1023.4 |
| 20260901124103 | 79 | 329 | 0.0 | 2.6 | 0.00 | 0.00 | 0.00 | 40 | 1023.4 |
| 20260901123601 | 80 | 188 | 0.0 | 1.7 | 0.00 | 0.00 | 0.00 | 43 | 1023.5 |
| 20260901123100 | 79 | 117 | 0.0 | 0.9 | 0.00 | 0.00 | 0.00 | 42 | 1023.5 |
| 20260901122558 | 79 | 107 | 0.0 | 2.6 | 0.00 | 0.00 | 0.00 | 42 | 1023.6 |
| 20260901122059 | 79 | 208 | 0.0 | 4.3 | 0.00 | 0.00 | 0.00 | 42 | 1023.6 |
| 20260901121600 | 80 | 325 | 0.0 | 4.3 | 0.00 | 0.00 | 0.00 | 42 | 1023.6 |
| 20260901121058 | 80 | 340 | 0.0 | 2.6 | 0.00 | 0.00 | 0.00 | 42 | 1023.6 |
| 20260901120558 | 79 | 236 | 0.0 | 6.1 | 0.00 | 0.00 | 0.00 | 43 | 1023.6 |
| 20260901115557 | 80 | 186 | 0.9 | 2.6 | 0.00 | 0.00 | 0.00 | 42 | 1023.7 |
| 20260901115056 | 80 | 183 | 0.9 | 3.5 | 0.00 | 0.00 | 0.00 | 42 | 1023.7 |
| 20260901114557 | 79 | 282 | 0.9 | 4.3 | 0.00 | 0.00 | 0.00 | 43 | 1023.7 |
| 20260901114055 | 79 | 178 | 0.0 | 4.3 | 0.00 | 0.00 | 0.00 | 44 | 1023.8 |
| 20260901113554 | 78 | 82 | 0.0 | 4.3 | 0.00 | 0.00 | 0.00 | 46 | 1023.8 |
| 20260901113121 | 78 | 5 | 1.7 | 7.8 | 0.00 | 0.00 | 0.00 | 44 | 1023.9 |
| 20260901112557 | 78 | 319 | 2.6 | 7.8 | 0.00 | 0.00 | 0.00 | 45 | 1023.9 |
| 20260901112054 | 78 | 355 | 1.7 | 7.0 | 0.00 | 0.00 | 0.00 | 45 | 1023.9 |
| 20260901111552 | 78 | 355 | 0.9 | 7.0 | 0.00 | 0.00 | 0.00 | 45 | 1023.9 |
| 20260901111054 | 77 | 308 | 0.0 | 3.5 | 0.00 | 0.00 | 0.00 | 46 | 1023.9 |
| 20260901110556 | 77 | 350 | 0.0 | 7.0 | 0.00 | 0.00 | 0.00 | 45 | 1024.0 |
| 20260901110104 | 77 | 237 | 0.9 | 7.0 | 0.00 | 0.00 | 0.00 | 45 | 1024.0 |
| 20260901105553 | 78 | 202 | 0.0 | 4.3 | 0.00 | 0.00 | 0.00 | 47 | 1024.0 |
| 20260901105055 | 76 | 276 | 0.0 | 4.3 | 0.00 | 0.00 | 0.00 | 49 | 1024.0 |
| 20260901104552 | 77 | 293 | 0.0 | 3.5 | 0.00 | 0.00 | 0.00 | 48 | 1024.1 |
| 20260901104050 | 77 | 24 | 0.0 | 3.5 | 0.00 | 0.00 | 0.00 | 48 | 1024.1 |
| 20260901103551 | 78 | 193 | 0.0 | 3.5 | 0.00 | 0.00 | 0.00 | 49 | 1024.2 |
| 20260901103050 | 76 | 228 | 0.9 | 6.1 | 0.00 | 0.00 | 0.00 | 51 | 1024.3 |
| 20260901102548 | 76 | 313 | 1.7 | 6.1 | 0.00 | 0.00 | 0.00 | 50 | 1024.2 |
| 20260901102048 | 77 | 243 | 0.0 | 4.3 | 0.00 | 0.00 | 0.00 | 49 | 1024.3 |
| 20260901101609 | 77 | 22 | 0.0 | 2.6 | 0.00 | 0.00 | 0.00 | 50 | 1024.4 |
| 20260901101046 | 76 | 81 | 0.0 | 1.7 | 0.00 | 0.00 | 0.00 | 53 | 1024.4 |
| 20260901100550 | 75 | 29 | 0.0 | 2.6 | 0.00 | 0.00 | 0.00 | 53 | 1024.4 |
| 20260901100059 | 75 | 29 | 0.0 | 2.6 | 0.00 | 0.00 | 0.00 | 53 | 1024.5 |
| 20260901095544 | 76 | 70 | 0.9 | 3.5 | 0.00 | 0.00 | 0.00 | 53 | 1024.5 |
| 20260901095045 | 76 | 133 | 0.0 | 3.5 | 0.00 | 0.00 | 0.00 | 53 | 1024.5 |
| 20260901094545 | 75 | 95 | 0.9 | 3.5 | 0.00 | 0.00 | 0.00 | 54 | 1024.6 |
| 20260901094041 | 75 | 173 | 0.0 | 0.9 | 0.00 | 0.00 | 0.00 | 54 | 1024.5 |
| 20260901093544 | 74 | 173 | 0.0 | 0.9 | 0.00 | 0.00 | 0.00 | 56 | 1024.5 |
| 20260901093040 | 74 | 136 | 0.0 | 0.0 | 0.00 | 0.00 | 0.00 | 56 | 1024.6 |
| 20260901092538 | 73 | 109 | 0.0 | 1.7 | 0.00 | 0.00 | 0.00 | 59 | 1024.6 |
| 20260901092039 | 73 | 323 | 0.9 | 3.5 | 0.00 | 0.00 | 0.00 | 58 | 1024.6 |
| 20260901091537 | 74 | 287 | 0.0 | 3.5 | 0.00 | 0.00 | 0.00 | 60 | 1024.7 |
| 20260901091035 | 73 | 256 | 0.0 | 3.5 | 0.00 | 0.00 | 0.00 | 59 | 1024.6 |
| 20260901090535 | 74 | 207 | 0.9 | 3.5 | 0.00 | 0.00 | 0.00 | 60 | 1024.6 |
| 20260901090038 | 74 | 327 | 1.7 | 3.5 | 0.00 | 0.00 | 0.00 | 60 | 1024.5 |
| 20260901085533 | 73 | 122 | 0.0 | 0.0 | 0.00 | 0.00 | 0.00 | 61 | 1024.6 |
| 20260901085032 | 73 | 122 | 0.0 | 2.6 | 0.00 | 0.00 | 0.00 | 62 | 1024.6 |
| 20260901084541 | 73 | 122 | 0.0 | 2.6 | 0.00 | 0.00 | 0.00 | 62 | 1024.6 |
| 20260901084035 | 72 | 178 | 0.0 | 3.5 | 0.00 | 0.00 | 0.00 | 64 | 1024.6 |
| 20260901083533 | 71 | 178 | 0.9 | 3.5 | 0.00 | 0.00 | 0.00 | 65 | 1024.6 |
| 20260901083034 | 71 | 175 | 0.0 | 1.7 | 0.00 | 0.00 | 0.00 | 65 | 1024.7 |
| 20260901082527 | 70 | 175 | 0.0 | 1.7 | 0.00 | 0.00 | 0.00 | 66 | 1024.7 |
| 20260901082028 | 70 | 175 | 0.0 | 0.0 | 0.00 | 0.00 | 0.00 | 67 | 1024.6 |
| 20260901081523 | 69 | 175 | 0.0 | 0.9 | 0.00 | 0.00 | 0.00 | 68 | 1024.5 |
| 20260901081021 | 69 | 155 | 0.0 | 0.0 | 0.00 | 0.00 | 0.00 | 69 | 1024.6 |
| 20260901080520 | 68 | 193 | 0.0 | 0.0 | 0.00 | 0.00 | 0.00 | 71 | 1024.6 |
| 20260901080019 | 67 | 193 | 0.0 | 0.0 | 0.00 | 0.00 | 0.00 | 72 | 1024.6 |
| 20260901075518 | 66 | 193 | 0.0 | 0.0 | 0.00 | 0.00 | 0.00 | 73 | 1024.6 |
| 20260901075020 | 66 | 193 | 0.0 | 0.0 | 0.00 | 0.00 | 0.00 | 74 | 1024.6 |
| 20260901074516 | 65 | 257 | 0.0 | 0.0 | 0.00 | 0.00 | 0.00 | 74 | 1024.5 |
| 20260901074014 | 65 | 256 | 0.0 | 0.0 | 0.00 | 0.00 | 0.00 | 76 | 1024.6 |
| 20260901073513 | 65 | 257 | 0.0 | 0.0 | 0.00 | 0.00 | 0.00 | 77 | 1024.6 |
| 20260901073013 | 64 | 273 | 0.0 | 0.0 | 0.00 | 0.00 | 0.00 | 78 | 1024.5 |
| 20260901072513 | 64 | 274 | 0.0 | 0.9 | 0.00 | 0.00 | 0.00 | 79 | 1024.5 |
| 20260901072013 | 63 | 274 | 0.0 | 1.7 | 0.00 | 0.00 | 0.00 | 80 | 1024.6 |
| 20260901071512 | 63 | 274 | 0.0 | 1.7 | 0.00 | 0.00 | 0.00 | 80 | 1024.6 |
| 20260901071011 | 62 | 273 | 0.0 | 1.7 | 0.00 | 0.00 | 0.00 | 81 | 1024.6 |
| 20260901070511 | 62 | 273 | 0.0 | 2.6 | 0.00 | 0.00 | 0.00 | 82 | 1024.7 |
| 20260901070012 | 61 | 272 | 0.0 | 2.6 | 0.00 | 0.00 | 0.00 | 82 | 1024.6 |
| 20260901065510 | 61 | 267 | 0.0 | 2.6 | 0.00 | 0.00 | 0.00 | 83 | 1024.5 |
| 20260901065010 | 61 | 267 | 0.0 | 2.6 | 0.00 | 0.00 | 0.00 | 83 | 1024.6 |
| 20260901064511 | 60 | 273 | 0.0 | 0.9 | 0.00 | 0.00 | 0.00 | 84 | 1024.6 |
| 20260901064011 | 60 | 290 | 0.0 | 1.7 | 0.00 | 0.00 | 0.00 | 84 | 1024.5 |
| 20260901063511 | 60 | 296 | 0.0 | 1.7 | 0.00 | 0.00 | 0.00 | 84 | 1024.6 |
| 20260901063013 | 60 | 296 | 0.0 | 1.7 | 0.00 | 0.00 | 0.00 | 85 | 1024.5 |
| 20260901062510 | 59 | 296 | 0.0 | 1.7 | 0.00 | 0.00 | 0.00 | 85 | 1024.6 |
| 20260901062017 | 59 | 296 | 0.0 | 3.5 | 0.00 | 0.00 | 0.00 | 85 | 1024.5 |
| 20260901061509 | 59 | 290 | 0.0 | 3.5 | 0.00 | 0.00 | 0.00 | 85 | 1024.5 |
| 20260901061009 | 59 | 235 | 0.0 | 2.6 | 0.00 | 0.00 | 0.00 | 85 | 1024.5 |
| 20260901060508 | 59 | 233 | 0.9 | 2.6 | 0.00 | 0.00 | 0.00 | 85 | 1024.5 |
| 20260901060008 | 58 | 237 | 0.0 | 2.6 | 0.00 | 0.00 | 0.00 | 85 | 1024.4 |
| 20260901055506 | 58 | 327 | 0.0 | 1.7 | 0.00 | 0.00 | 0.00 | 85 | 1024.3 |
| 20260901055010 | 58 | 327 | 0.0 | 2.6 | 0.00 | 0.00 | 0.00 | 85 | 1024.3 |
| 20260901054505 | 58 | 327 | 0.0 | 2.6 | 0.00 | 0.00 | 0.00 | 85 | 1024.2 |
| 20260901054005 | 58 | 325 | 0.9 | 3.5 | 0.00 | 0.00 | 0.00 | 85 | 1024.2 |
| 20260901053504 | 58 | 336 | 0.0 | 3.5 | 0.00 | 0.00 | 0.00 | 85 | 1024.2 |
| 20260901053005 | 58 | 317 | 0.9 | 3.5 | 0.00 | 0.00 | 0.00 | 85 | 1024.2 |
| 20260901052502 | 58 | 316 | 1.7 | 3.5 | 0.00 | 0.00 | 0.00 | 85 | 1024.2 |
| 20260901052005 | 58 | 312 | 0.9 | 3.5 | 0.00 | 0.00 | 0.00 | 85 | 1024.1 |
| 20260901051502 | 58 | 313 | 1.7 | 3.5 | 0.00 | 0.00 | 0.00 | 85 | 1024.1 |
| 20260901051001 | 58 | 308 | 0.9 | 2.6 | 0.00 | 0.00 | 0.00 | 85 | 1024.1 |
| 20260901050502 | 58 | 304 | 0.9 | 2.6 | 0.00 | 0.00 | 0.00 | 85 | 1024.2 |
| 20260901045559 | 58 | 304 | 0.9 | 3.5 | 0.00 | 0.00 | 0.00 | 85 | 1024.1 |
| 20260901045101 | 58 | 304 | 1.7 | 3.5 | 0.00 | 0.00 | 0.00 | 85 | 1024.1 |
| 20260901044627 | 58 | 302 | 0.0 | 3.5 | 0.00 | 0.00 | 0.00 | 85 | 1024.1 |
| 20260901044100 | 58 | 306 | 0.9 | 3.5 | 0.00 | 0.00 | 0.00 | 85 | 1024.1 |
| 20260901043558 | 58 | 304 | 0.0 | 2.6 | 0.00 | 0.00 | 0.00 | 84 | 1024.1 |
| 20260901043101 | 58 | 304 | 0.0 | 3.5 | 0.00 | 0.00 | 0.00 | 84 | 1024.0 |
| 20260901042557 | 58 | 306 | 0.0 | 2.6 | 0.00 | 0.00 | 0.00 | 84 | 1024.1 |
| 20260901042057 | 59 | 275 | 0.0 | 1.7 | 0.00 | 0.00 | 0.00 | 84 | 1024.1 |
| 20260901041556 | 59 | 296 | 0.0 | 1.7 | 0.00 | 0.00 | 0.00 | 83 | 1024.0 |
| 20260901041056 | 59 | 296 | 0.0 | 0.9 | 0.00 | 0.00 | 0.00 | 83 | 1024.0 |
| 20260901040555 | 59 | 296 | 0.0 | 0.9 | 0.00 | 0.00 | 0.00 | 83 | 1023.9 |
| 20260901040057 | 59 | 296 | 0.0 | 0.0 | 0.00 | 0.00 | 0.00 | 82 | 1023.9 |
| 20260901035556 | 59 | 296 | 0.0 | 0.0 | 0.00 | 0.00 | 0.00 | 83 | 1023.9 |
| 20260901035053 | 59 | 296 | 0.0 | 0.9 | 0.00 | 0.00 | 0.00 | 83 | 1023.9 |
| 20260901034600 | 59 | 296 | 0.0 | 1.7 | 0.00 | 0.00 | 0.00 | 82 | 1024.0 |
| 20260901034055 | 59 | 296 | 0.0 | 1.7 | 0.00 | 0.00 | 0.00 | 82 | 1023.9 |
| 20260901033552 | 59 | 296 | 0.0 | 1.7 | 0.00 | 0.00 | 0.00 | 82 | 1023.8 |
| 20260901033052 | 60 | 296 | 0.0 | 1.7 | 0.00 | 0.00 | 0.00 | 82 | 1023.8 |
| 20260901032556 | 60 | 296 | 0.0 | 0.9 | 0.00 | 0.00 | 0.00 | 82 | 1023.9 |
| 20260901032056 | 60 | 296 | 0.0 | 0.9 | 0.00 | 0.00 | 0.00 | 82 | 1023.9 |
| 20260901031553 | 60 | 296 | 0.0 | 0.9 | 0.00 | 0.00 | 0.00 | 82 | 1023.8 |
| 20260901031050 | 60 | 296 | 0.0 | 2.6 | 0.00 | 0.00 | 0.00 | 81 | 1023.9 |
| 20260901030549 | 60 | 296 | 0.9 | 2.6 | 0.00 | 0.00 | 0.00 | 81 | 1023.9 |
| 20260901030049 | 60 | 296 | 0.0 | 2.6 | 0.00 | 0.00 | 0.00 | 81 | 1023.9 |
| 20260901025548 | 60 | 296 | 0.9 | 2.6 | 0.00 | 0.01 | 0.00 | 81 | 1023.9 |
| 20260901025048 | 60 | 294 | 0.0 | 1.7 | 0.00 | 0.01 | 0.00 | 81 | 1023.9 |
| 20260901024548 | 61 | 294 | 0.0 | 0.0 | 0.00 | 0.01 | 0.00 | 81 | 1023.9 |
| 20260901024046 | 61 | 294 | 0.0 | 2.6 | 0.00 | 0.01 | 0.00 | 81 | 1023.9 |
| 20260901023546 | 61 | 294 | 0.9 | 2.6 | 0.00 | 0.01 | 0.00 | 81 | 1023.9 |
| 20260901023046 | 61 | 294 | 0.0 | 2.6 | 0.00 | 0.01 | 0.00 | 80 | 1023.9 |
| 20260901022546 | 61 | 294 | 0.0 | 1.7 | 0.00 | 0.01 | 0.00 | 80 | 1023.9 |
| 20260901022046 | 61 | 294 | 0.0 | 0.9 | 0.00 | 0.01 | 0.00 | 80 | 1023.9 |
| 20260901021606 | 61 | 294 | 0.0 | 1.7 | 0.00 | 0.01 | 0.00 | 80 | 1023.9 |
| 20260901021047 | 61 | 294 | 0.9 | 1.7 | 0.00 | 0.01 | 0.00 | 80 | 1023.9 |
| 20260901020543 | 61 | 297 | 0.0 | 1.7 | 0.00 | 0.01 | 0.00 | 80 | 1023.8 |
| 20260901020101 | 61 | 297 | 0.0 | 3.5 | 0.00 | 0.01 | 0.00 | 80 | 1023.8 |
| 20260901015543 | 61 | 274 | 0.0 | 0.9 | 0.00 | 0.01 | 0.00 | 80 | 1023.8 |
| 20260901015045 | 61 | 274 | 0.0 | 1.7 | 0.00 | 0.01 | 0.00 | 80 | 1023.9 |
| 20260901014548 | 61 | 274 | 0.0 | 1.7 | 0.00 | 0.01 | 0.00 | 79 | 1023.9 |
| 20260901014042 | 61 | 274 | 0.0 | 2.6 | 0.00 | 0.01 | 0.00 | 79 | 1023.9 |
| 20260901013542 | 61 | 274 | 0.0 | 2.6 | 0.00 | 0.01 | 0.00 | 79 | 1023.9 |
| 20260901013045 | 61 | 274 | 0.0 | 0.9 | 0.00 | 0.01 | 0.00 | 79 | 1023.9 |
| 20260901012543 | 61 | 274 | 0.0 | 0.9 | 0.00 | 0.01 | 0.00 | 79 | 1023.9 |
| 20260901012040 | 62 | 274 | 0.0 | 1.7 | 0.00 | 0.01 | 0.00 | 79 | 1023.8 |
| 20260901011543 | 62 | 274 | 0.0 | 1.7 | 0.00 | 0.01 | 0.00 | 78 | 1023.8 |
| 20260901011039 | 62 | 274 | 0.0 | 1.7 | 0.00 | 0.01 | 0.00 | 78 | 1023.8 |
| 20260901010539 | 62 | 274 | 0.0 | 1.7 | 0.00 | 0.01 | 0.00 | 78 | 1023.8 |
| 20260901010042 | 62 | 274 | 0.0 | 2.6 | 0.00 | 0.01 | 0.00 | 78 | 1023.6 |
| 20260901005538 | 62 | 274 | 0.0 | 2.6 | 0.00 | 0.01 | 0.00 | 78 | 1023.7 |
| 20260901005037 | 62 | 274 | 0.9 | 1.7 | 0.00 | 0.01 | 0.00 | 78 | 1023.7 |
| 20260901004541 | 62 | 274 | 0.0 | 1.7 | 0.00 | 0.01 | 0.00 | 78 | 1023.7 |
| 20260901004037 | 62 | 274 | 0.0 | 1.7 | 0.00 | 0.01 | 0.00 | 78 | 1023.7 |
| 20260901003536 | 62 | 274 | 0.0 | 1.7 | 0.00 | 0.01 | 0.00 | 78 | 1023.7 |
| 20260901003043 | 62 | 274 | 0.0 | 1.7 | 0.00 | 0.01 | 0.00 | 77 | 1023.7 |
| 20260901002536 | 62 | 274 | 0.9 | 1.7 | 0.00 | 0.01 | 0.00 | 77 | 1023.7 |
| 20260901002035 | 62 | 273 | 0.0 | 1.7 | 0.00 | 0.01 | 0.00 | 77 | 1023.7 |
| 20260901001541 | 63 | 272 | 0.0 | 1.7 | 0.00 | 0.01 | 0.00 | 77 | 1023.6 |
| 20260901001033 | 63 | 272 | 0.0 | 1.7 | 0.00 | 0.01 | 0.00 | 77 | 1023.7 |
| 20260901000533 | 63 | 272 | 0.0 | 2.6 | 0.00 | 0.01 | 0.00 | 77 | 1023.7 |
| 20260901000034 | 63 | 272 | 0.0 | 3.5 | 0.00 | 0.01 | 0.00 | 77 | 1023.7 |
| 20260831235532 | 63 | 270 | 0.0 | 1.7 | 0.00 | 0.22 | 0.00 | 77 | 1023.7 |
| 20260831235032 | 63 | 269 | 0.0 | 0.9 | 0.00 | 0.22 | 0.00 | 76 | 1023.6 |
| 20260831234537 | 63 | 269 | 0.0 | 1.7 | 0.00 | 0.22 | 0.00 | 76 | 1023.6 |
| 20260831234031 | 63 | 270 | 0.0 | 1.7 | 0.00 | 0.22 | 0.00 | 76 | 1023.7 |
| 20260831233533 | 63 | 273 | 0.0 | 1.7 | 0.00 | 0.22 | 0.00 | 76 | 1023.7 |
| 20260831233041 | 63 | 273 | 0.0 | 2.6 | 0.00 | 0.22 | 0.00 | 76 | 1023.6 |
| 20260831232529 | 63 | 273 | 0.0 | 2.6 | 0.00 | 0.22 | 0.00 | 76 | 1023.7 |
| 20260831232032 | 63 | 207 | 0.0 | 1.7 | 0.00 | 0.22 | 0.00 | 76 | 1023.7 |
| 20260831231528 | 64 | 207 | 0.0 | 0.9 | 0.00 | 0.22 | 0.00 | 75 | 1023.7 |